TimeCDT,TemperatureF,Dew PointF,Humidity,Sea Level PressureIn,VisibilityMPH,Wind Direction,Wind SpeedMPH,Gust SpeedMPH,PrecipitationIn,Events,Conditions,WindDirDegrees,DateUTC
12:15 AM,34.9,32.4,91,30.19,10.0,Calm,Calm,-,N/A,,Clear,0,2012-10-08 05:15:00
12:35 AM,34.7,32.4,91,30.19,10.0,Calm,Calm,-,N/A,,Clear,0,2012-10-08 05:35:00
12:55 AM,34.9,32.9,92,30.19,10.0,Calm,Calm,-,N/A,,Clear,0,2012-10-08 05:55:00
1:15 AM,33.4,32.0,94,30.19,10.0,Calm,Calm,-,N/A,,Clear,0,2012-10-08 06:15:00
1:35 AM,34.2,32.0,92,30.20,10.0,Calm,Calm,-,N/A,,Clear,0,2012-10-08 06:35:00
1:55 AM,34.0,32.0,92,30.20,10.0,Calm,Calm,-,N/A,,Clear,0,2012-10-08 06:55:00
2:15 AM,34.9,31.6,88,30.20,10.0,SE,3.5,-,N/A,,Clear,140,2012-10-08 07:15:00
2:35 AM,35.6,31.1,84,30.20,10.0,SSE,3.5,-,N/A,,Clear,160,2012-10-08 07:35:00
2:55 AM,33.8,30.9,89,30.19,10.0,SSE,4.6,-,N/A,,Clear,160,2012-10-08 07:55:00
3:15 AM,33.4,31.1,91,30.19,10.0,SSE,3.5,-,N/A,,Clear,150,2012-10-08 08:15:00
3:35 AM,33.8,30.6,88,30.18,10.0,SSE,3.5,-,N/A,,Clear,160,2012-10-08 08:35:00
3:55 AM,34.7,31.1,87,30.18,10.0,Calm,Calm,-,N/A,,Clear,0,2012-10-08 08:55:00
4:15 AM,34.7,31.1,87,30.19,10.0,Calm,Calm,-,N/A,,Clear,0,2012-10-08 09:15:00
4:35 AM,34.2,31.1,89,30.19,10.0,Calm,Calm,-,N/A,,Clear,0,2012-10-08 09:35:00
4:55 AM,34.7,31.5,88,30.19,10.0,Calm,Calm,-,N/A,,Clear,0,2012-10-08 09:55:00
5:15 AM,33.4,30.6,89,30.19,10.0,SE,3.5,-,N/A,,Clear,140,2012-10-08 10:15:00
5:35 AM,34.7,31.6,89,30.19,10.0,Calm,Calm,-,N/A,,Clear,0,2012-10-08 10:35:00
5:55 AM,32.0,29.8,92,30.20,10.0,SSE,3.5,-,N/A,,Clear,160,2012-10-08 10:55:00
6:15 AM,32.4,30.2,92,30.20,10.0,SSE,3.5,-,N/A,,Clear,160,2012-10-08 11:15:00
6:35 AM,33.1,30.2,89,30.20,10.0,SSE,5.8,-,N/A,,Clear,160,2012-10-08 11:35:00
6:55 AM,34.0,30.4,87,30.20,10.0,SSE,5.8,-,N/A,,Clear,160,2012-10-08 11:55:00
7:15 AM,34.0,30.6,87,30.20,10.0,SSE,5.8,-,N/A,,Clear,160,2012-10-08 12:15:00
7:35 AM,35.6,32.0,87,30.20,10.0,SSE,4.6,-,N/A,,Clear,160,2012-10-08 12:35:00
7:55 AM,36.5,32.5,86,30.21,10.0,South,4.6,-,N/A,,Clear,170,2012-10-08 12:55:00
8:15 AM,38.8,34.5,84,30.21,10.0,South,4.6,-,N/A,,Clear,180,2012-10-08 13:15:00
8:35 AM,41.0,35.6,81,30.21,10.0,South,4.6,-,N/A,,Clear,190,2012-10-08 13:35:00
8:55 AM,43.3,36.1,76,30.22,10.0,South,5.8,-,N/A,,Clear,190,2012-10-08 13:55:00
9:15 AM,46.2,36.1,68,30.21,10.0,South,8.1,-,N/A,,Clear,180,2012-10-08 14:15:00
9:55 AM,50.4,35.4,57,30.21,10.0,South,10.4,-,N/A,,Clear,180,2012-10-08 14:55:00
10:15 AM,52.5,35.1,51,30.21,10.0,SSW,11.5,-,N/A,,Clear,210,2012-10-08 15:15:00
10:35 AM,52.9,33.4,48,30.20,10.0,SSW,11.5,-,N/A,,Clear,200,2012-10-08 15:35:00
10:55 AM,54.1,34.3,47,30.21,10.0,SSW,11.5,-,N/A,,Clear,200,2012-10-08 15:55:00
11:15 AM,54.7,33.8,45,30.20,10.0,SSW,11.5,-,N/A,,Clear,200,2012-10-08 16:15:00
11:35 AM,55.4,34.2,45,30.19,10.0,SW,9.2,-,N/A,,Clear,220,2012-10-08 16:35:00
11:55 AM,56.1,33.8,43,30.19,10.0,SW,10.4,-,N/A,,Clear,230,2012-10-08 16:55:00
12:15 PM,56.3,32.9,41,30.18,10.0,SW,10.4,18.4,N/A,,Clear,230,2012-10-08 17:15:00
12:35 PM,57.0,31.6,38,30.17,10.0,South,11.5,-,N/A,,Clear,180,2012-10-08 17:35:00
12:55 PM,57.6,31.3,37,30.17,10.0,SSW,10.4,-,N/A,,Clear,210,2012-10-08 17:55:00
1:15 PM,57.4,31.1,37,30.15,10.0,SSW,11.5,23.0,N/A,,Clear,200,2012-10-08 18:15:00
1:35 PM,58.5,31.5,36,30.14,10.0,SSW,11.5,17.3,N/A,,Clear,200,2012-10-08 18:35:00
1:55 PM,58.3,30.9,35,30.13,10.0,South,10.4,19.6,N/A,,Clear,180,2012-10-08 18:55:00
2:15 PM,58.6,30.9,35,30.13,10.0,South,15.0,19.6,N/A,,Clear,190,2012-10-08 19:15:00
2:35 PM,59.4,30.7,34,30.12,10.0,SSW,12.7,17.3,N/A,,Clear,200,2012-10-08 19:35:00
3:15 PM,59.7,30.2,33,30.10,10.0,SSW,9.2,18.4,N/A,,Clear,200,2012-10-08 20:15:00
3:35 PM,59.9,29.7,32,30.10,7.0,SSW,13.8,-,N/A,,Clear,200,2012-10-08 20:35:00
3:55 PM,59.4,29.8,33,30.08,10.0,SSW,10.4,-,N/A,,Clear,210,2012-10-08 20:55:00
4:15 PM,59.7,30.0,32,30.09,10.0,SW,13.8,18.4,N/A,,Clear,220,2012-10-08 21:15:00
4:35 PM,59.4,30.0,33,30.08,10.0,SSW,16.1,19.6,N/A,,Clear,210,2012-10-08 21:35:00
4:55 PM,59.0,29.5,33,30.08,10.0,SSW,9.2,-,N/A,,Clear,210,2012-10-08 21:55:00
5:15 PM,58.6,30.2,34,30.08,10.0,SW,9.2,-,N/A,,Clear,220,2012-10-08 22:15:00
5:35 PM,58.1,31.3,36,30.08,10.0,SSW,9.2,-,N/A,,Clear,210,2012-10-08 22:35:00
5:55 PM,57.2,32.0,38,30.07,10.0,SSW,8.1,-,N/A,,Clear,210,2012-10-08 22:55:00
6:15 PM,54.9,33.4,44,30.07,10.0,South,6.9,-,N/A,,Clear,190,2012-10-08 23:15:00
6:35 PM,51.3,33.8,51,30.06,10.0,South,6.9,-,N/A,,Clear,170,2012-10-08 23:35:00
6:55 PM,49.6,34.3,56,30.06,10.0,South,5.8,-,N/A,,Clear,170,2012-10-08 23:55:00
7:15 PM,49.3,34.5,57,30.06,10.0,SSE,6.9,-,N/A,,Clear,160,2012-10-09 00:15:00
7:35 PM,48.6,35.4,60,30.07,10.0,SSE,5.8,-,N/A,,Clear,160,2012-10-09 00:35:00
8:15 PM,47.3,36.0,65,30.07,10.0,SSE,4.6,-,N/A,,Clear,150,2012-10-09 01:15:00
8:35 PM,47.3,36.0,65,30.07,10.0,SSE,5.8,-,N/A,,Clear,150,2012-10-09 01:35:00
8:55 PM,47.3,36.1,65,30.08,7.0,SSE,6.9,-,N/A,,Clear,150,2012-10-09 01:55:00
9:15 PM,46.6,36.1,67,30.08,10.0,SSE,6.9,-,N/A,,Clear,160,2012-10-09 02:15:00
9:35 PM,46.0,36.7,70,30.08,10.0,SSE,6.9,-,N/A,,Clear,160,2012-10-09 02:35:00
9:55 PM,45.7,36.9,71,30.08,10.0,SSE,8.1,-,N/A,,Clear,160,2012-10-09 02:55:00
10:35 PM,45.0,37.0,74,30.08,10.0,SSE,9.2,-,N/A,,Clear,160,2012-10-09 03:35:00
10:55 PM,44.1,37.0,76,30.08,10.0,South,6.9,-,N/A,,Clear,170,2012-10-09 03:55:00
11:15 PM,43.2,36.9,78,30.08,10.0,South,5.8,-,N/A,,Clear,180,2012-10-09 04:15:00
11:35 PM,42.8,36.7,79,30.08,10.0,South,6.9,-,N/A,,Clear,180,2012-10-09 04:35:00
11:55 PM,43.0,36.9,79,30.08,10.0,South,5.8,-,N/A,,Clear,180,2012-10-09 04:55:00